User: anonymous
Location: Holcomb Observatory
(44.4922°N, 73.1654°W)
Time: 10:31:36
(UTC-04:00)
Language:

Cosmos 1727 Rocket - Orbit

View from above orbital plane
View from above orbital plane
View from above satellite
View from above satellite

Ground track
Ground track

The orbit data is extracted from the following two-line orbital elements,

1 16511U 86008B   14108.20705315  .00000073  00000-0  59684-4 0  4837
2 16511 082.9472 357.1503 0022820 271.4305 251.1056 13.75758652417324
Epoch (UTC): 18 April 2014 04:58:09
Eccentricity: 0.0022820
inclination: 82.9472°
perigee height: 962 km
apogee height: 996 km
right ascension of ascending node: 357.1503°
argument of perigee: 271.4305°
revolutions per day: 13.75758652
mean anomaly at epoch: 251.1056°
orbit number at epoch: 41732

The dashed part of the orbit path shows where the satellite is in the earth's shadow,  

DLR